Location: Praha
(50.0830°N, 14.4670°E)
Time: 09:38:42
(UTC+01:00)

ISS - Pass Details

Date: 23 January 2023
Orbit: 412 x 423 km, 51.6° (Epoch: 06 February)

Event Time Altitude Azimuth Distance (km) Brightness Sun altitude
Rises 17:34:38 0° 243° (WSW) 2,373 2.4 -8.7°
Reaches altitude 10° 17:36:44 10° 241° (WSW) 1,511 0.7 -9.0°
Maximum altitude 17:40:06 68° 158° (SSE) 460 -3.6 -9.5°
Enters shadow 17:42:52 15° 77° (ENE) 1,264 -2.0 -9.9°
